Regional Weather Roundup
Issued by NWS

Home | Current Version | Previous Version | Graphics & Text | Print | Product List | Glossary On
Versions: 1 2 3 4 5 6 7 8 9 10 11 12 13 14 15 16 17 18 19 20 21 22 23 24 25 26 27 28 29 30 31 32 33 34 35 36 37 38 39 40 41 42 43 44 45 46 47 48 49 50
000
ASUS43 KIND 290559
RWRIN

WEATHER ROUNDUP FOR INDIANA
NATIONAL WEATHER SERVICE INDIANAPOLIS IN
200 AM EDT FRI AUG 29 2014

NOTE: "FAIR" INDICATES FEW OR NO CLOUDS BELOW 12,000 FEET WITH NO
SIGNIFICANT WEATHER AND/OR OBSTRUCTIONS TO VISIBILITY.

* - STATION DOES NOT REPORT WEATHER SUCH AS PRECIPITATION OR FOG.

+ - STATION NOT QUALITY CONTROLLED BY THE NATIONAL WEATHER SERVICE.
    USE DATA WITH CAUTION...ESPECIALLY DEWPOINT AND RELATIVE
    HUMIDITY OBSERVATIONS.

INZ001>003-010>013-019-020-290700-
NORTHWEST INDIANA

CITY           SKY/WX    TMP DP  RH WIND       PRES   REMARKS
MONTICELLO +   FAIR      68  65  88 CALM      30.05F
RENSSELAER +   FAIR      70  66  88 SE5       30.05F
VALPARAISO     FAIR      69  63  81 SE8       30.05F
6HR MIN TEMP:  68; 6HR MAX TEMP:  72; 6HR PCP: TRACE;


$$

LMZ046-743>745-290700-
SOUTHERN LAKE MICHIGAN

STATION/POSITION TIME  TEMP WIND        PRES
                       AIR  DIR/SP/G
                 (UTC) (F)  (DEG/KT/KT) (MB)
MICHIGAN CITY    0500   72  120/  9/ 12   N/A

$$

INZ004-005-014>016-021>024-290700-
NORTH CENTRAL INDIANA

CITY           SKY/WX    TMP DP  RH WIND       PRES   REMARKS
GOSHEN         FAIR      68  60  75 SE12      30.08F
6HR MIN TEMP:  67; 6HR MAX TEMP:  77;

SOUTH BEND     MOCLDY    71  62  73 SE9       30.07F
6HR MIN TEMP:  71; 6HR MAX TEMP:  77;


$$

INZ006>009-017-018-025>027-290700-
NORTHEAST INDIANA

CITY           SKY/WX    TMP DP  RH WIND       PRES   REMARKS
ANGOLA *+      CLEAR     63  57  82 SE6       30.11F
FORT WAYNE     FAIR      63  59  87 E6        30.10F
6HR MIN TEMP:  63; 6HR MAX TEMP:  73;


$$

INZ028-029-035-036-043>045-051>053-290700-
WEST CENTRAL INDIANA

CITY           SKY/WX    TMP DP  RH WIND       PRES   REMARKS
GREENCASTLE +  FAIR      70  64  83 SE3       30.05F
LAFAYETTE      FAIR      69  65  86 E6        30.04F
6HR MIN TEMP:  69; 6HR MAX TEMP:  75;

TERRE HAUTE    FAIR      71  68  90 CALM      30.03F
6HR MIN TEMP:  71; 6HR MAX TEMP:  79;


$$

INZ030>032-037>040-046>048-054>057-064-065-290700-
CENTRAL INDIANA

CITY           SKY/WX    TMP DP  RH WIND       PRES   REMARKS
FRANKFORT +    FAIR      68  68 100 SE6       30.07S
INDIANAPOLIS   CLOUDY    71  63  75 SE9       30.04F
6HR MIN TEMP:  71; 6HR MAX TEMP:  80;

-EAGLE CREEK   FAIR      72  61  68 SE8       30.05F
6HR MIN TEMP:  72; 6HR MAX TEMP:  79;

KOKOMO *+      FAIR      66  61  82 SE6       30.07F
MT COMFORT *+  FAIR      68  68 100 SE3       30.07F
SHELBYVILLE    FAIR      70  62  76 E6        30.06F
6HR MIN TEMP:  70; 6HR MAX TEMP:  79;


$$

INZ033-034-041-042-049-050-058-059-290700-
EAST CENTRAL INDIANA

CITY           SKY/WX    TMP DP  RH WIND       PRES   REMARKS
MUNCIE         FAIR      65  61  87 SE6       30.09S
6HR MIN TEMP:  65; 6HR MAX TEMP:  75;


$$

INZ060-061-067>069-081>083-085>088-290700-
SOUTHWEST INDIANA

CITY           SKY/WX    TMP DP  RH WIND       PRES   REMARKS
EVANSVILLE     FAIR      74  71  91 CALM      30.01F
6HR MIN TEMP:  73; 6HR MAX TEMP:  75; 6HR PCP:  0.22;


$$

INZ062-063-066-070>080-084-089>092-290700-
SOUTH CENTRAL AND SOUTHEAST INDIANA

CITY           SKY/WX    TMP DP  RH WIND       PRES   REMARKS
BLOOMINGTON    FAIR      73  67  81 SE6       30.05S
6HR MIN TEMP:  70; 6HR MAX TEMP:  81;


$$




USA.gov is the U.S. government's official web portal to all federal, state and local government web resources and services.